Location: Bergnershof
(48.9468°N, 10.9431°E)
Time: 15:19:13
(UTC+00:00)

Cosmos 2333 Rocket - Pass Details

Date: 27 June 2021
Orbit: 841 x 861 km, 70.8° (Epoch: 28 July)

Event Time Altitude Azimuth Distance (km) Brightness Sun altitude
Rises 22:23:07 0° 282° (WNW) 3,427 5.7 -16.7°
Reaches altitude 10° 22:27:31 10° 314° (NW) 2,489 5.5 -16.8°
Maximum altitude 22:29:31 12° 335° (NNW) 2,365 5.7 -16.9°
Drops below altitude 10° 22:31:30 10° 355° (N) 2,487 6.0 -17.0°
Sets 22:35:55 0° 27° (NNE) 3,420 6.2 -17.1°
